Location: Gwatt
(46.7204°N, 7.6223°E)
Time: 21:59:10
(UTC+00:00)

Tiros 1 despin weight - Visible Passes

Search period start: 21 January 2021 00:00
Search period end: 31 January 2021 00:00
Orbit: 594 x 641 km, 48.2° (Epoch: 20 January)

Date Brightness Start Highest point End Pass type
(mag) Time Alt. Az. Time Alt. Az. Time Alt. Az.
21 Jan ? 17:49:45 10° W 17:54:14 72° N 17:56:09 33° E visible
21 Jan ? 19:31:24 10° WNW 19:33:12 24° W 19:33:12 24° W visible
22 Jan ? 18:06:13 10° WNW 18:10:42 80° N 18:11:58 46° E visible
22 Jan ? 19:47:53 10° W 19:49:02 17° W 19:49:02 17° W visible
23 Jan ? 18:22:38 10° WNW 18:27:07 82° SSW 18:27:50 61° ESE visible
23 Jan ? 20:04:31 10° W 20:04:54 12° W 20:04:54 12° W visible
24 Jan ? 16:57:25 10° W 17:01:56 75° N 17:06:22 10° E visible
24 Jan ? 18:39:05 10° WNW 18:43:28 57° SSW 18:43:47 56° S visible
25 Jan ? 17:13:52 10° WNW 17:18:23 86° NNE 17:22:45 10° ESE visible
25 Jan ? 18:55:36 10° W 18:59:42 36° SSW 18:59:50 36° SSW visible
26 Jan ? 17:30:18 10° WNW 17:34:46 72° SSW 17:38:55 11° ESE visible
26 Jan ? 19:12:22 10° W 19:15:49 22° SW 19:16:00 22° SW visible
27 Jan ? 17:46:45 10° WNW 17:51:04 48° SSW 17:55:15 10° SE visible
27 Jan ? 19:29:58 10° WSW 19:31:49 12° SW 19:32:21 12° SW visible
28 Jan ? 18:03:21 10° W 18:07:15 30° SW 18:11:07 10° SSE visible
29 Jan ? 18:20:19 10° W 18:23:19 18° SW 18:26:18 10° S visible
30 Jan ? 16:54:26 10° W 16:58:39 40° SSW 17:02:48 10° SE visible
